1373846433702,101.252
1373846493702,101.099
1373846553702,101.793
1373846613702,101.325
1373846673702,101.371
1373846733702,101.411
1373846793702,101.461
1373846853702,101.382
1373846913702,101.426
1373846973702,100.715
1373847033702,101.758
1373847093702,101.957
1373847153702,101.044
1373847213702,101.385
1373847273702,101.132
1373847333702,101.338
1373847393702,100.842
1373847453702,100.589
1373847513702,101.030
1373847573702,101.242
1373847633702,100.978
1373847693702,101.064
1373847753702,101.675
1373847813702,101.276
1373847873702,100.875
1373847933702,100.936
1373847993702,101.063
1373848053702,100.683
1373848113702,100.850
1373848173702,101.056
1373848233702,100.776
1373848293702,100.587
1373848353702,100.980
1373848413702,100.384
1373848473702,100.946
1373848533702,100.342
1373848593702,100.685
1373848653702,100.447
1373848713702,100.722
1373848773702,100.614
1373848833702,101.145
1373848893702,100.305
1373848953702,100.570
1373849013702,100.546
1373849073702,100.934
1373849133702,100.787
1373849193702,100.803
1373849253702,100.636
1373849313702,100.041
1373849373702,100.170
1373849433702,100.553
1373849493702,100.506
1373849553702,101.069
1373849613702,100.817
1373849673702,100.877
1373849733702,100.623
1373849793702,100.281
1373849853702,100.201
1373849913702,100.173
1373849973702,100.405
1373850033712,100.473
1373850093712,100.417
1373850153712,100.347
1373850213712,100.295
1373850273712,100.253
1373850333712,100.490
1373850393712,100.625
1373850453712,100.486
1373850513712,100.282
1373850573712,100.653
1373850633712,100.234
1373850693712,100.589
1373850753712,100.337
1373850813712,100.630
1373850873712,100.873
1373850933712,100.432
1373850993712,100.742
1373851053712,100.237
1373851113712,100.188
1373851173712,100.014
1373851233712,100.562
1373851293712,100.219
1373851353712,100.321
1373851413712,100.356
1373851473712,100.389
1373851533712,100.653
1373851593712,100.348
1373851653712,100.413
1373851713712,100.404
1373851773712,100.145
1373851833712,100.737
1373851893712,100.827
1373851953712,100.376
1373852013712,100.422
1373852073712,100.097
1373852133712,100.565
1373852193712,99.8867
1373852253712,100.268
1373852313712,100.498
1373852373712,100.313
1373852433712,100.420
1373852493712,100.286
1373852553712,100.558
1373852613712,100.434
1373852673712,100.622
1373852733712,100.728
1373852793712,100.463
1373852853712,100.690
1373852913712,101.048
1373852973712,100.566
1373853033712,100.578
1373853093712,100.454
1373853153712,100.534
1373853213712,100.472
1373853273712,100.884
1373853333712,100.714
1373853393712,100.652
1373853453712,100.854
1373853513712,100.692
1373853573712,100.488
1373853633721,100.815
1373853693722,100.728
1373853753722,101.142
1373853813722,100.877
1373853873722,100.569
1373853933722,100.650
1373853993721,100.255
1373854053721,100.650
1373854113721,100.315
1373854173721,100.250
1373854233721,100.372
1373854293721,100.582
1373854353721,100.581
1373854413721,100.625
1373854473721,100.831
1373854533721,100.534
1373854593721,100.348
1373854653721,100.799
1373854713721,100.571
1373854773721,100.828
1373854833721,100.406
1373854893721,100.629
1373854953721,100.652
1373855013721,100.672
1373855073722,100.481
1373855133722,100.599
1373855193722,100.572
1373855253722,100.907
1373855313721,100.166
1373855373721,100.243
1373855433721,101.067
1373855493721,100.419
1373855553721,100.598
1373855613721,100.861
1373855673721,100.785
1373855733721,100.443
1373855793721,100.581
1373855853721,100.766
1373855913721,100.090
1373855973721,100.537
1373856033721,100.408
1373856093721,100.225
1373856153721,100.171
1373856213721,100.826
1373856273721,100.895
1373856333721,100.439
1373856393722,100.031
1373856453722,100.367
1373856513722,99.7284
1373856573722,100.159
1373856633722,100.348
1373856693721,100.499
1373856753721,100.072
1373856813721,100.062
1373856873721,100.240
1373856933721,100.345
1373856993721,100.279
1373857053721,100.272
1373857113721,100.395
1373857173721,100.267
1373857233731,99.9318
1373857293731,99.5406
1373857353731,100.558
1373857413731,100.268
1373857473731,99.4548
1373857533731,99.8642
1373857593731,100.219
1373857653731,99.7486
1373857713731,100.353
1373857773731,100.522
1373857833731,100.260
1373857893731,100.075
1373857953731,100.187
1373858013731,100.440
1373858073731,100.376
1373858133731,99.8203
1373858193731,99.6327
1373858253731,99.7609
1373858313731,99.7760
1373858373731,99.7381
1373858433731,99.6655
1373858493731,99.5941
1373858553731,99.7332
1373858613731,99.5350
1373858673731,99.5173
1373858733731,99.4906
1373858793731,99.3268
1373858853731,99.5075
1373858913731,99.6129
1373858973731,99.4388
1373859033731,99.2938
1373859093731,99.4765
1373859153731,99.6372
1373859213731,99.6493
1373859273731,98.9624
1373859333731,99.3229
1373859393731,99.2034
1373859453731,99.1262
1373859513731,99.5151
1373859573731,99.6590
1373859633731,99.3758
1373859693731,99.3440
1373859753731,99.5278
1373859813731,99.3086
1373859873731,99.2955
1373859933731,99.0783
1373859993731,99.1389
1373860053731,99.0301
1373860113731,99.4065
1373860173731,99.1359
1373860233731,98.9561
1373860293731,98.8221
1373860353731,99.1980
1373860413731,99.0126
1373860473731,98.6126
1373860533731,98.6960
1373860593731,98.9888
1373860653731,98.7378
1373860713731,98.9277
1373860773731,98.7507
1373860833740,98.6641
1373860893740,98.6585
1373860953740,98.5073
1373861013740,98.4188
1373861073740,98.6686
1373861133740,99.0060
1373861193740,98.4846
1373861253740,98.5238
1373861313740,98.0515
1373861373740,98.5704
1373861433740,98.4246
1373861493740,98.5196
1373861553740,97.8075
1373861613740,98.5589
1373861673740,98.9981
1373861733740,98.2838
1373861793740,98.1125
1373861853740,98.5184
1373861913740,98.2473
1373861973740,97.8411
1373862033740,97.6027
1373862093740,98.1603
1373862153740,98.5010
1373862213740,98.7059
1373862273740,98.3816
1373862333740,98.5443
1373862393740,98.5290
1373862453740,98.1174
1373862513740,98.1140
1373862573740,98.1629
1373862633740,98.3633
1373862693740,98.2906
1373862753740,98.1000
1373862813740,98.4987
1373862873740,98.4452
1373862933740,97.7400
1373862993740,98.3295
1373863053740,98.3332
1373863113740,98.2273
1373863173740,98.0584
1373863233740,97.9694
1373863293740,98.1182
1373863353740,98.4697
1373863413740,98.5122
1373863473740,97.9779
1373863533740,98.1296
1373863593740,98.2944
1373863653740,98.0708
1373863713740,97.5915
1373863773740,98.1318
1373863833740,97.7713
1373863893740,98.1473
1373863953740,98.0330
1373864013740,97.9979
1373864073740,97.9164
1373864133740,97.6482
1373864193740,97.7961
1373864253740,97.2920
1373864313740,97.8402
1373864373740,97.8664
1373864433749,97.8776
1373864493749,98.3482
1373864553749,97.7950
1373864613749,98.0706
1373864673749,97.8650
1373864733749,97.6683
1373864793749,97.8415
1373864853749,98.1735
1373864913749,97.9756
1373864973749,97.9239
1373865033749,98.1337
1373865093749,97.9400
1373865153749,97.9040
1373865213749,97.0739
1373865273749,97.4944
1373865333749,97.6253
1373865393749,97.9273
1373865453749,97.9207
1373865513749,97.8190
1373865573749,97.7840
1373865633749,97.9136
1373865693749,98.0151
1373865753749,97.9864
1373865813749,97.8892
1373865873749,98.1445
1373865933749,97.7502
1373865993749,97.8067
1373866053749,97.9916
1373866113749,97.3110
1373866173749,98.1389
1373866233749,98.3843
1373866293749,98.0450
1373866353749,97.8591
1373866413749,97.9171
1373866473749,98.0308
1373866533749,97.5794
1373866593749,97.8451
1373866653749,97.6381
1373866713749,97.8215
1373866773749,97.7511
1373866833749,97.2244
1373866893749,97.8067
1373866953749,97.9767
1373867013749,98.0962
1373867073749,97.8302
1373867133749,98.3869
1373867193749,97.6328
1373867253749,97.4244
1373867313749,97.8342
1373867373749,97.9790
1373867433749,97.4342
1373867493749,97.7205
1373867553749,98.1882
1373867613749,97.9336
1373867673749,97.6177
1373867733749,97.8358
1373867793749,98.0181
1373867853749,97.3303
1373867913749,97.7667
1373867973749,97.7281
1373868033758,97.8455
1373868093758,97.6808
1373868153758,97.5008
1373868213758,97.6738
1373868273758,97.9523
1373868333758,97.6226
1373868393758,97.9220
1373868453758,98.0335
1373868513758,97.9378
1373868573758,97.6123
1373868633758,98.0639
1373868693758,97.7136
1373868753758,97.7054
1373868813758,97.9032
1373868873758,97.3476
1373868933758,97.8537
1373868993758,97.7023
1373869053758,97.8615
1373869113758,97.3716
1373869173758,98.0910
1373869233758,97.6900
1373869293758,97.8436
1373869353758,97.6664
1373869413758,97.6714
1373869473758,97.9717
1373869533758,98.0961
1373869593758,98.0427
1373869653758,97.8594
1373869713758,97.8041
1373869773758,98.4510
1373869833758,98.1147
1373869893758,97.7274
1373869953758,98.3150
1373870013758,98.3307
1373870073758,98.0746
1373870133758,97.7328
1373870193758,98.0072
1373870253758,98.1686
1373870313758,98.6327
1373870373758,97.8615
1373870433758,97.9082
1373870493758,98.4765
1373870553758,98.7294
1373870613758,97.5718
1373870673758,98.3311
1373870733758,97.8174
1373870793758,98.2655
1373870853758,98.2673
1373870913758,97.7997
1373870973758,98.0148
1373871033758,98.3218
1373871093758,98.2642
1373871153758,98.1023
1373871213758,98.0716
1373871273758,98.1117
1373871333758,97.7355
1373871393758,98.3368
1373871453758,98.3870
1373871513758,98.0880
1373871573758,98.0312
1373871633766,97.4294
1373871693766,97.7645
1373871753766,98.2276
1373871813766,98.0005
1373871873766,98.0400
1373871933766,98.0372
1373871993766,98.1747
1373872053766,97.5417
1373872113766,97.6547
1373872173766,97.6529
1373872233766,98.0410
1373872293767,98.0877
1373872353767,98.0112
1373872413767,97.6526
1373872473767,97.6505
1373872533766,97.8531
1373872593766,97.8709
1373872653766,97.4214
1373872713766,97.8819
1373872773766,97.7957
1373872833766,97.6723
1373872893766,97.4088
1373872953766,97.5821
1373873013766,98.0281
1373873073766,97.4479
1373873133766,97.6432
1373873193766,97.7689
1373873253766,97.9015
1373873313766,97.3123
1373873373766,97.2882
1373873433766,97.8097
1373873493766,97.7176
1373873553766,97.8145
1373873613767,97.2290
1373873673767,97.6472
1373873733767,97.1995
1373873793767,96.9772
1373873853767,97.2994
1373873913766,97.4885
1373873973766,96.8787
1373874033766,97.3616
1373874093766,97.0735
1373874153766,96.9115
1373874213766,97.0998
1373874273766,97.7140
1373874333766,97.8780
1373874393766,97.6800
1373874453766,97.8992
1373874513766,97.5810
1373874573766,97.9096
1373874633766,98.0209
1373874693766,97.6704
1373874753766,98.3553
1373874813766,97.8395
1373874873766,97.8992
1373874933766,97.7660
1373874993767,97.7701
1373875053767,97.4451
1373875113767,97.4374
1373875173767,98.0346
1373875233775,97.7387
1373875293775,97.8916
1373875353775,97.6747
1373875413775,97.4604
1373875473775,97.6187
1373875533775,97.8358
1373875593775,97.8768
1373875653775,97.8218
1373875713775,97.8997
1373875773775,97.3642
1373875833775,97.9261
1373875893775,97.7498
1373875953775,97.4482
1373876013775,97.8601
1373876073775,97.5975
1373876133775,97.5870
1373876193775,98.0238
1373876253775,97.6224
1373876313775,97.5956
1373876373775,97.7497
1373876433775,97.8573
1373876493775,98.0181
1373876553775,97.3447
1373876613775,97.8270
1373876673775,97.9347
1373876733775,98.1953
1373876793775,97.7618
1373876853775,97.7170
1373876913775,97.8893
1373876973775,97.7549
1373877033775,98.0222
1373877093775,98.1701
1373877153775,97.5339
1373877213775,97.6020
1373877273775,97.8891
1373877333775,98.1213
1373877393775,97.8147
1373877453775,97.9161
1373877513775,98.0653
1373877573775,98.2328
1373877633775,97.8643
1373877693775,97.8054
1373877753775,98.1414
1373877813775,98.3667
1373877873775,98.2314
1373877933775,98.2342
1373877993775,98.5255
1373878053775,98.1192
1373878113775,98.3012
1373878173775,97.8501
1373878233775,98.0784
1373878293775,98.1547
1373878353775,97.8854
1373878413775,98.0733
1373878473775,98.2586
1373878533775,98.7110
1373878593775,98.4382
1373878653775,98.1141
1373878713775,98.3007
1373878773775,98.0067
1373878833784,98.2788
1373878893784,98.5652
1373878953784,98.6863
1373879013784,98.3679
1373879073784,98.4821
1373879133784,98.4604
1373879193784,98.4907
1373879253784,98.1918
1373879313784,98.6664
1373879373784,98.4249
1373879433784,98.5783
1373879493784,98.5187
1373879553784,98.0764
1373879613784,98.6667
1373879673784,98.4259
1373879733784,98.5556
1373879793784,98.3970
1373879853784,98.4517
1373879913784,98.8532
1373879973784,98.5136
1373880033784,98.6484
1373880093784,98.8574
1373880153784,98.1921
1373880213784,98.3460
1373880273784,98.4994
1373880333784,98.7785
1373880393784,98.6755
1373880453784,98.9953
1373880513784,98.7272
1373880573784,98.6635
1373880633784,98.9813
1373880693784,98.4775
1373880753784,99.2703
1373880813784,99.0142
1373880873784,98.6848
1373880933784,99.2186
1373880993784,98.7548
1373881053784,98.6902
1373881113784,98.8163
1373881173784,98.9042
1373881233784,98.8892
1373881293784,98.6564
1373881353784,98.5110
1373881413784,98.5713
1373881473784,98.9033
1373881533784,98.6321
1373881593784,98.8801
1373881653784,98.7204
1373881713784,99.0283
1373881773784,98.9205
1373881833784,98.7171
1373881893784,99.0425
1373881953784,98.9509
1373882013784,98.9149
1373882073784,99.4180
1373882133784,98.9253
1373882193784,98.8581
1373882253784,99.1985
1373882313784,98.5130
1373882373784,98.6916
1373882433793,98.8976
1373882493793,99.0251
1373882553793,99.4257
1373882613793,98.8048
1373882673793,99.2555
1373882733793,99.0832
1373882793793,99.4071
1373882853793,99.2441
1373882913793,99.3825
1373882973793,99.5181
1373883033793,98.3848
1373883093793,99.0189
1373883153793,99.2434
1373883213793,99.3854
1373883273793,99.0446
1373883333793,98.8545
1373883393793,98.7929
1373883453793,99.1799
1373883513793,98.9720
1373883573793,98.8550
1373883633793,98.6068
1373883693793,99.0206
1373883753793,98.9566
1373883813793,98.9350
1373883873793,99.3856
1373883933793,99.2822
1373883993793,98.7479
1373884053793,99.2349
1373884113793,99.2562
1373884173793,98.9968
1373884233793,99.0893
1373884293793,98.7993
1373884353793,98.9814
1373884413793,99.1122
1373884473793,98.8233
1373884533793,99.0818
1373884593793,99.4112
1373884653793,98.6012
1373884713793,99.1726
1373884773793,99.2152
1373884833793,98.8529
1373884893793,98.5690
1373884953793,99.4318
1373885013793,98.6541
1373885073793,99.2692
1373885133793,99.2637
1373885193793,99.1184
1373885253793,99.0239
1373885313793,98.8212
1373885373793,98.8927
1373885433793,99.6252
1373885493793,98.6696
1373885553793,98.9480
1373885613793,98.9201
1373885673793,100.122
1373885733793,99.5606
1373885793793,99.4163
1373885853793,99.1054
1373885913793,99.3332
1373885973793,99.1290
1373886033802,99.3646
1373886093802,99.4395
1373886153802,99.1626
1373886213802,99.1873
1373886273802,99.3430
1373886333802,99.0058
1373886393802,99.6475
1373886453802,99.0836
1373886513802,99.7164
1373886573802,99.2531
1373886633802,99.2597
1373886693802,99.2916
1373886753802,99.3794
1373886813802,98.8939
1373886873802,99.3388
1373886933802,99.4460
1373886993802,99.3902
1373887053802,99.0843
1373887113802,98.9699
1373887173802,98.9803
1373887233802,98.6387
1373887293802,99.2851
1373887353802,99.5590
1373887413802,99.0196
1373887473802,99.5536
1373887533802,99.5516
1373887593802,99.3096
1373887653802,98.9696
1373887713802,99.0747
1373887773802,99.3540
1373887833802,99.2900
1373887893802,99.0999
1373887953802,99.0765
1373888013802,99.5304
1373888073802,99.3704
1373888133802,99.2359
1373888193802,99.5611
1373888253802,99.1133
1373888313802,99.3252
1373888373802,99.7093
1373888433802,99.5945
1373888493802,99.2384
1373888553802,99.1404
1373888613802,99.2598
1373888673802,98.9374
1373888733802,98.9379
1373888793802,99.0203
1373888853802,99.4241
1373888913802,99.1438
1373888973802,99.1281
1373889033802,99.4673
1373889093802,99.4986
1373889153802,99.4085
1373889213802,99.0156
1373889273802,99.3743
1373889333802,98.9675
1373889393802,98.9717
1373889453802,99.0564
1373889513802,99.2703
1373889573802,99.1722
1373889633834,99.0884
1373889693834,99.1674
1373889753834,98.9647
1373889813834,98.8059
1373889873834,98.8901
1373889933834,99.0479
1373889993834,98.9445
1373890053834,98.8624
1373890113834,98.7947
1373890173834,98.8740
1373890233834,99.0027
1373890293834,98.6301
1373890353834,99.2268
1373890413834,98.9842
1373890473834,98.9284
1373890533834,98.8677
1373890593834,98.8984
1373890653834,99.3001
1373890713834,99.2354
1373890773834,99.2230
1373890833834,98.7411
1373890893834,99.2160
1373890953834,98.7856
1373891013834,98.9235
1373891073834,98.8235
1373891133834,98.6271
1373891193834,98.6295
1373891253834,98.7657
1373891313834,98.4949
1373891373834,98.9135
1373891433834,98.8356
1373891493834,98.7449
1373891553834,98.6435
1373891613834,98.8093
1373891673834,98.4078
1373891733834,99.1143
1373891793834,98.4153
1373891853834,98.8026
1373891913834,98.5638
1373891973834,98.5429
1373892033834,98.4912
1373892093834,98.9116
1373892153834,98.6462
1373892213834,98.6759
1373892273834,98.5063
1373892333834,98.4664
1373892393834,98.3264
1373892453834,98.7087
1373892513834,98.3780
1373892573834,98.9349
1373892633834,98.5020
1373892693834,97.8830
1373892753834,98.3830
1373892813834,98.4213
1373892873834,98.4059
1373892933834,98.7115
1373892993834,98.5427
1373893053834,98.2350
1373893113834,98.3479
1373893173834,97.9414
1373893233843,98.5902
1373893293843,98.4443
1373893353843,98.2668
1373893413843,98.5392
1373893473843,98.1642
1373893533843,98.0674
1373893593843,98.1296
1373893653843,97.8381
1373893713843,98.0544
1373893773843,98.0477
1373893833843,98.1033
1373893893843,97.5597
1373894433843,98.0113
1373894493843,98.3790
1373894553843,98.1285
1373894613843,98.3038
1373894673843,98.0857
1373894733843,97.9749
1373894793843,97.8309
1373894853843,98.4699
1373894913843,98.2085
1373894973843,98.0756
1373895033843,98.2919
1373895093843,100.797
1373895153843,97.9397
1373895213843,98.1436
1373895273843,98.0932
1373895333843,98.3071
1373895393843,98.4443
1373895453843,98.1355
1373895513843,98.4474
1373895573843,97.9543
1373895633843,98.2090
1373895693843,98.0148
1373895753843,98.0965
1373895813843,98.1614
1373895873843,98.4095
1373895933843,98.2816
1373895993843,98.1789
1373896053843,97.8096
1373896113843,98.0595
1373896173843,97.9240
1373896233843,98.5908
1373896293843,98.6187
1373896353843,98.3491
1373896413843,98.6489
1373896473843,97.7647
1373896533843,97.9903
1373896593843,98.5585
1373896653843,98.1654
1373896713843,98.2133
1373896773843,98.0041
1373896833853,98.4698
1373896893853,98.5321
1373896953853,98.5495
1373897013853,98.3054
1373897073853,98.4388
1373897133853,98.2463
1373897193853,97.9242
1373897253853,98.1931
1373897313853,98.3899
1373897373853,98.8077
1373897433853,97.9350
1373897493853,98.2688
1373897553853,98.1057
1373897613853,98.6733
1373897673853,98.1275
1373897733853,97.8839
1373897793853,98.6384
1373897853853,98.2760
1373897913853,98.5224
1373897973853,98.2665
1373898033853,98.1296
1373898093853,97.9089
1373898153853,98.0887
1373898213853,98.4930
1373898273853,98.4220
1373898333853,98.6108
1373898393853,97.8850
1373898453853,98.5106
1373898513853,98.3159
1373898573853,98.2535
1373898633853,97.9206
1373898693853,98.5095
1373898753853,98.1052
1373898813853,98.5768
1373898873853,98.1257
1373898933853,98.1035
1373898993853,98.6665
1373899053853,98.0162
1373899113853,98.2242
1373899173853,98.6081
1373899233853,98.2816
1373899293853,98.5810
1373899353853,98.5737
1373899413853,98.3983
1373899473853,98.4429
1373899533853,98.5312
1373899593853,98.6607
1373899653853,98.4778
1373899713853,98.1837
1373899773853,98.3522
1373899833853,98.4428
1373899893853,98.4395
1373899953853,98.5447
1373900013853,98.5763
1373900073853,98.4206
1373900133853,98.2807
1373900193853,98.1809
1373900253853,98.5661
1373900313853,98.3667
1373900373853,98.9234
1373900433862,98.6953
1373900493862,98.7116
1373900553862,98.5378
1373900613862,98.2809
1373900673862,98.2303
1373900733862,98.7823
1373900793862,98.0127
1373900853862,98.4055
1373900913862,98.4463
1373900973862,98.4254
1373901033862,98.8950
1373901093862,98.5599
1373901153862,97.8186
1373901213862,98.6600
1373901273862,98.6311
1373901333862,98.3125
1373901393862,98.8206
1373901453862,98.3937
1373901513862,98.4762
1373901573862,98.4821
1373901633862,98.2843
1373901693862,98.3788
1373901753862,97.8986
1373901813862,98.6097
1373901873862,98.5146
1373901933862,98.3937
1373901993862,98.5680
1373902053862,98.3285
1373902113862,98.0807
1373902173862,98.4092
1373902233862,98.0189
1373902293862,98.3313
1373902353862,98.1337
1373902413862,98.0220
1373902473862,98.0932
1373902533862,98.1770
1373902593862,98.6134
1373902653862,98.4219
1373902713862,98.6510
1373902773862,98.0136
1373902833862,98.4988
1373902893862,98.3403
1373902953862,98.7832
1373903013862,98.7061
1373903073862,98.0648
1373903133862,98.7471
1373903193862,98.7337
1373903253862,98.2964
1373903313862,98.2414
1373903373862,98.6420
1373903433862,98.3879
1373903493862,98.0783
1373903553862,98.5173
1373903613862,98.6214
1373903673862,98.5643
1373903733862,98.1565
1373903793862,98.2778
1373903853862,98.1831
1373903913862,98.5610
1373903973862,98.0220
1373904033872,98.2724
1373904093872,98.2990
1373904153872,98.1661
1373904213872,98.1191
1373904273872,98.4384
1373904333872,97.4167
1373904393872,98.5721
1373904453872,98.4228
1373904513872,98.2025
1373904573872,98.2339
1373904633872,97.9395
1373904693872,98.1575
1373904753872,98.1212
1373904813872,97.6225
1373904873872,97.9216
1373904933872,98.3655
1373904993872,98.2346
1373905053872,97.8298
1373905113872,97.7881
1373905173872,98.2386
1373905233872,98.3035
1373905293872,98.0897
1373905353872,98.0069
1373905413872,97.9914
1373905473872,98.2581
1373905533872,97.8874
1373905593872,97.8736
1373905653872,97.6215
1373905713872,98.0042
1373905773872,98.2502
1373905833872,97.9702
1373905893872,98.2348
1373905953872,98.2516
1373906013872,98.0582
1373906073872,98.2126
1373906133872,97.9793
1373906193872,98.4701
1373906253872,98.3163
1373906313872,98.5963
1373906373872,98.3475
1373906433872,98.1066
1373906493872,98.1368
1373906553872,98.3563
1373906613872,98.4916
1373906673872,98.5152
1373906733872,99.1338
1373906793872,98.3988
1373906853872,98.6423
1373906913872,98.8025
1373906973872,99.1579
1373907033872,98.5959
1373907093872,98.3247
1373907153872,98.1102
1373907213872,98.4405
1373907273872,98.8092
1373907333872,98.6515
1373907393872,98.2726
1373907453872,98.7344
1373907513872,99.1185
1373907573872,98.8625
1373907633882,99.2141
1373907693882,98.9966
1373907753882,99.1530
1373907813882,99.3779
1373907873882,98.8861
1373907933882,99.1694
1373907993882,98.9823
1373908053882,99.0480
1373908113882,98.9129
1373908173882,99.1930
1373908233882,98.7604
1373908293882,98.9516
1373908353882,99.0171
1373908413882,99.3792
1373908473882,98.8926
1373908533882,99.0959
1373908593882,99.0703
1373908653882,99.3946
1373908713882,98.6208
1373908773882,99.2453
1373908833882,99.0182
1373908893882,98.2804
1373908953882,98.7951
1373909013882,99.0667
1373909073882,99.2023
1373909133882,98.8252
1373909193882,99.1994
1373909253882,99.7915
1373909313882,99.1936
1373909373882,99.2704
1373909433882,98.9203
1373909493882,99.1976
1373909553882,99.1184
1373909613882,99.2999
1373909673882,99.3274
1373909733882,99.3570
1373909793882,99.5391
1373909853882,99.5663
1373909913882,99.0899
1373909973882,99.5827
1373910033882,99.8212
1373910093882,99.2981
1373910153882,99.7645
1373910213882,99.5020
1373910273882,99.4160
1373910333882,99.4948
1373910393882,99.5790
1373910453882,99.6860
1373910513882,99.7344
1373910573882,99.5792
1373910633882,100.055
1373910693882,99.0007
1373910753882,99.7598
1373910813882,99.7551
1373910873882,99.6547
1373910933882,99.8170
1373910993882,99.8533
1373911053882,99.8173
1373911113882,99.4152
1373911173882,100.084
1373911233893,99.8788
1373911293893,100.199
1373911353893,100.098
1373911413893,100.109
1373911473893,100.307
1373911533893,99.6500
1373911593893,99.9687
1373911653893,100.079
1373911713893,100.211
1373911773893,99.9997
1373911833893,100.265
1373911893893,100.420
1373911953893,99.6522
1373912013893,100.330
1373912073893,100.110
1373912133893,99.9529
1373912193893,100.730
1373912253893,100.257